Weather History for Sharm El Sheikh, Egypt

Change the Weather History Date:

Thursday, December 5, 2013

  Actual Average Record
Temperature  
Mean Temperature 76 °F -  
Max Temperature 84 °F - - ()
Min Temperature 68 °F - - ()
Cooling Degree Days 11    
Growing Degree Days 26 (Base 50)    
Moisture  
Dew Point 50 °F    
Average Humidity 44    
Maximum Humidity 83    
Minimum Humidity 29    
Precipitation  
Precipitation 0.00 in - - ()
Sea Level Pressure  
Sea Level Pressure 29.90 in    
Wind  
Wind Speed 6 mph ()    
Max Wind Speed 13 mph    
Max Gust Speed -    
T = Trace of Precipitation, MM = Missing Value Source: Averaged Metar Reports

Daily Weather History Graph

Daily Weather History Graph

Search for Another Location

Airport:

Trip Planner

Search our weather history database for the weather conditions in past years. The results will help you decide how hot, cold, wet, or windy it might be!

Date:

Astronomy

Dec. 05, 2013 Rise Set
Actual Time 6:19 AM EET 4:46 PM EET
Civil Twilight 5:53 AM EET 5:12 PM EET
Nautical Twilight 5:24 AM EET 5:41 PM EET
Astronomical Twilight 4:56 AM EET 6:09 PM EET
Moon 8:27 AM EET (12/5) 7:36 PM EET (12/5)
Length of Visible Light 11h 18m
Length of Day
10h 27m
Waxing Crescent, 8% of the Moon is Illuminated
Dec 5
Waxing Crescent
Dec 9
First Quarter
Dec 17
Full
Dec 25
Last Quarter
Jan 1
New

Hourly Weather History & Observations

Time (EET) Temp. Dew Point Humidity Pressure Visibility Wind Dir Wind Speed Gust Speed Precip Events Conditions
12:00 AM 73.4 °F 55.4 °F 53% 29.86 in - North 6.9 mph - N/A   Clear
1:00 AM 71.6 °F 53.6 °F 53% 29.86 in - North 5.8 mph - N/A   Clear
2:00 AM 71.6 °F 53.6 °F 53% 29.86 in - North 8.1 mph - N/A   Clear
3:00 AM 71.6 °F 51.8 °F 50% 29.86 in - North 8.1 mph - N/A   Clear
5:00 AM 71.6 °F 51.8 °F 50% 29.86 in - North 8.1 mph - N/A   Clear
6:00 AM 69.8 °F 50.0 °F 49% 29.89 in - North 6.9 mph - N/A   Clear
7:00 AM 69.8 °F 51.8 °F 53% 29.89 in - North 8.1 mph - N/A   Clear
8:00 AM 71.6 °F 50.0 °F 46% 29.92 in - North 10.4 mph - N/A   Clear
9:00 AM 75.2 °F 50.0 °F 41% 29.92 in - North 12.7 mph - N/A   Clear
10:00 AM 77.0 °F 48.2 °F 36% 29.92 in - NNE 12.7 mph - N/A   Clear
11:00 AM 80.6 °F 48.2 °F 32% 29.92 in - NE 6.9 mph - N/A   Clear
12:00 PM 84.2 °F 48.2 °F 29% 29.89 in - East 6.9 mph - N/A   Clear
1:00 PM 82.4 °F 48.2 °F 30% 29.89 in - East 5.8 mph - N/A   Clear
2:00 PM 80.6 °F 48.2 °F 32% 29.86 in - NE 4.6 mph - N/A   Clear
3:00 PM 80.6 °F 46.4 °F 30% 29.86 in - NE 4.6 mph - N/A   Clear
4:00 PM 75.2 °F 48.2 °F 38% 29.89 in - NE 4.6 mph - N/A   Clear
5:00 PM 71.6 °F 66.2 °F 83% 29.89 in - North 4.6 mph - N/A   Clear
6:00 PM 73.4 °F 55.4 °F 53% 29.86 in - North 6.9 mph - N/A   Clear
7:00 PM 68.0 °F 44.6 °F 43% 29.92 in - NW 2.3 mph - N/A   Clear
8:00 PM 68.0 °F 44.6 °F 43% 29.95 in - Variable 2.3 mph - N/A   Clear
9:00 PM 68.0 °F 44.6 °F 43% 29.95 in - WNW 4.6 mph - N/A   Clear
10:00 PM 68.0 °F 42.8 °F 40% 29.98 in - NNW 3.5 mph - N/A   Clear
11:00 PM 68.0 °F 41.0 °F 37% 29.98 in - Variable 3.5 mph - N/A   Clear